Year,Month,Day,Hour,Minute,Value (Times are PST for temperature in C)
2010,08,23,00,00,14.60
2010,08,23,00,01,14.60
2010,08,23,00,02,14.60
2010,08,23,00,03,14.60
2010,08,23,00,04,14.60
2010,08,23,00,05,14.50
2010,08,23,00,06,14.50
2010,08,23,00,07,14.50
2010,08,23,00,08,14.50
2010,08,23,00,09,14.50
2010,08,23,00,10,14.40
2010,08,23,00,11,14.40
2010,08,23,00,12,14.30
2010,08,23,00,13,14.30
2010,08,23,00,14,14.20
2010,08,23,00,15,14.20
2010,08,23,00,16,14.20
2010,08,23,00,17,14.20
2010,08,23,00,18,14.20
2010,08,23,00,19,14.10
2010,08,23,00,20,14.10
2010,08,23,00,21,14.10
2010,08,23,00,22,14.10
2010,08,23,00,23,14.10
2010,08,23,00,24,14.10
2010,08,23,00,25,14.10
2010,08,23,00,26,14.00
2010,08,23,00,27,14.00
2010,08,23,00,28,14.00
2010,08,23,00,29,14.00
2010,08,23,00,30,13.90
2010,08,23,00,31,13.90
2010,08,23,00,32,13.90
2010,08,23,00,33,13.90
2010,08,23,00,34,13.90
2010,08,23,00,35,13.90
2010,08,23,00,36,13.90
2010,08,23,00,37,13.80
2010,08,23,00,38,13.80
2010,08,23,00,39,13.80
2010,08,23,00,40,13.80
2010,08,23,00,41,13.80
2010,08,23,00,42,13.80
2010,08,23,00,43,13.80
2010,08,23,00,44,13.80
2010,08,23,00,45,13.80
2010,08,23,00,46,13.70
2010,08,23,00,47,13.70
2010,08,23,00,48,13.70
2010,08,23,00,49,13.70
2010,08,23,00,50,13.70
2010,08,23,00,51,13.60
2010,08,23,00,52,13.60
2010,08,23,00,53,13.60
2010,08,23,00,54,13.60
2010,08,23,00,55,13.60
2010,08,23,00,56,13.60
2010,08,23,00,57,13.50
2010,08,23,00,58,13.50
2010,08,23,00,59,13.50
2010,08,23,01,00,13.50
2010,08,23,01,01,13.50
2010,08,23,01,02,13.50
2010,08,23,01,03,13.50
2010,08,23,01,04,13.50
2010,08,23,01,05,13.50
2010,08,23,01,06,13.50
2010,08,23,01,07,13.50
2010,08,23,01,08,13.50
2010,08,23,01,09,13.50
2010,08,23,01,10,13.50
2010,08,23,01,11,13.50
2010,08,23,01,12,13.50
2010,08,23,01,13,13.40
2010,08,23,01,14,13.40
2010,08,23,01,15,13.40
2010,08,23,01,16,13.40
2010,08,23,01,17,13.40
2010,08,23,01,18,13.40
2010,08,23,01,19,13.40
2010,08,23,01,20,13.30
2010,08,23,01,21,13.30
2010,08,23,01,22,13.30
2010,08,23,01,23,13.30
2010,08,23,01,24,13.30
2010,08,23,01,25,13.30
2010,08,23,01,26,13.30
2010,08,23,01,27,13.30
2010,08,23,01,28,13.30
2010,08,23,01,29,13.30
2010,08,23,01,30,13.30
2010,08,23,01,31,13.30
2010,08,23,01,32,13.20
2010,08,23,01,33,13.30
2010,08,23,01,34,13.30
2010,08,23,01,35,13.30
2010,08,23,01,36,13.30
2010,08,23,01,37,13.30
2010,08,23,01,38,13.30
2010,08,23,01,39,13.30
2010,08,23,01,40,13.30
2010,08,23,01,41,13.30
2010,08,23,01,42,13.30
2010,08,23,01,43,13.30
2010,08,23,01,44,13.30
2010,08,23,01,45,13.30
2010,08,23,01,46,13.30
2010,08,23,01,47,13.30
2010,08,23,01,48,13.30
2010,08,23,01,49,13.30
2010,08,23,01,50,13.30
2010,08,23,01,51,13.30
2010,08,23,01,52,13.30
2010,08,23,01,53,13.30
2010,08,23,01,54,13.30
2010,08,23,01,55,13.20
2010,08,23,01,56,13.20
2010,08,23,01,57,13.20
2010,08,23,01,58,13.20
2010,08,23,01,59,13.10
2010,08,23,02,00,13.10
2010,08,23,02,01,13.10
2010,08,23,02,02,13.10
2010,08,23,02,03,13.10
2010,08,23,02,04,13.10
2010,08,23,02,05,13.10
2010,08,23,02,06,13.00
2010,08,23,02,07,13.00
2010,08,23,02,08,13.00
2010,08,23,02,09,13.00
2010,08,23,02,10,13.00
2010,08,23,02,11,13.00
2010,08,23,02,12,13.00
2010,08,23,02,13,13.00
2010,08,23,02,14,12.90
2010,08,23,02,15,12.90
2010,08,23,02,16,12.80
2010,08,23,02,17,12.80
2010,08,23,02,18,12.80
2010,08,23,02,19,12.70
2010,08,23,02,20,12.70
2010,08,23,02,21,12.60
2010,08,23,02,22,12.50
2010,08,23,02,23,12.50
2010,08,23,02,24,12.50
2010,08,23,02,25,12.40
2010,08,23,02,26,12.30
2010,08,23,02,27,12.20
2010,08,23,02,28,12.20
2010,08,23,02,29,12.10
2010,08,23,02,30,12.00
2010,08,23,02,31,11.90
2010,08,23,02,32,11.90
2010,08,23,02,33,11.80
2010,08,23,02,34,11.80
2010,08,23,02,35,11.70
2010,08,23,02,36,11.60
2010,08,23,02,37,11.60
2010,08,23,02,38,11.60
2010,08,23,02,39,11.50
2010,08,23,02,40,11.40
2010,08,23,02,41,11.40
2010,08,23,02,42,11.40
2010,08,23,02,43,11.30
2010,08,23,02,44,11.30
2010,08,23,02,45,11.20
2010,08,23,02,46,11.20
2010,08,23,02,47,11.10
2010,08,23,02,48,11.10
2010,08,23,02,49,11.10
2010,08,23,02,50,11.10
2010,08,23,02,51,10.90
2010,08,23,02,52,10.90
2010,08,23,02,53,10.90
2010,08,23,02,54,10.90
2010,08,23,02,55,10.90
2010,08,23,02,56,10.80
2010,08,23,02,57,10.80
2010,08,23,02,58,10.70
2010,08,23,02,59,10.70
2010,08,23,03,00,10.60
2010,08,23,03,01,10.60
2010,08,23,03,02,10.60
2010,08,23,03,03,10.60
2010,08,23,03,04,10.50
2010,08,23,03,05,10.40
2010,08,23,03,06,10.40
2010,08,23,03,07,10.40
2010,08,23,03,08,10.40
2010,08,23,03,09,10.40
2010,08,23,03,10,10.30
2010,08,23,03,11,10.30
2010,08,23,03,12,10.30
2010,08,23,03,13,10.30
2010,08,23,03,14,10.30
2010,08,23,03,15,10.20
2010,08,23,03,16,10.20
2010,08,23,03,17,10.20
2010,08,23,03,18,10.20
2010,08,23,03,19,10.20
2010,08,23,03,20,10.10
2010,08,23,03,21,10.10
2010,08,23,03,22,10.10
2010,08,23,03,23,10.10
2010,08,23,03,24,10.10
2010,08,23,03,25,10.10
2010,08,23,03,26,10.10
2010,08,23,03,27,10.10
2010,08,23,03,28,10.10
2010,08,23,03,29,10.10
2010,08,23,03,30,10.10
2010,08,23,03,31,10.00
2010,08,23,03,32,9.90
2010,08,23,03,33,9.90
2010,08,23,03,34,9.90
2010,08,23,03,35,9.90
2010,08,23,03,36,9.90
2010,08,23,03,37,9.90
2010,08,23,03,38,9.90
2010,08,23,03,39,9.90
2010,08,23,03,40,9.90
2010,08,23,03,41,9.90
2010,08,23,03,42,9.90
2010,08,23,03,43,9.90
2010,08,23,03,44,9.80
2010,08,23,03,45,9.80
2010,08,23,03,46,9.80
2010,08,23,03,47,9.80
2010,08,23,03,48,9.80
2010,08,23,03,49,9.80
2010,08,23,03,50,9.80
2010,08,23,03,51,9.90
2010,08,23,03,52,9.90
2010,08,23,03,53,9.90
2010,08,23,03,54,9.90
2010,08,23,03,55,9.90
2010,08,23,03,56,9.90
2010,08,23,03,57,9.90
2010,08,23,03,58,9.90
2010,08,23,03,59,9.90
2010,08,23,04,00,9.90
2010,08,23,04,01,9.80
2010,08,23,04,02,9.80
2010,08,23,04,03,9.80
2010,08,23,04,04,9.80
2010,08,23,04,05,9.80
2010,08,23,04,06,9.70
2010,08,23,04,07,9.70
2010,08,23,04,08,9.70
2010,08,23,04,09,9.70
2010,08,23,04,10,9.70
2010,08,23,04,11,9.60
2010,08,23,04,12,9.60
2010,08,23,04,13,9.60
2010,08,23,04,14,9.60
2010,08,23,04,15,9.60
2010,08,23,04,16,9.50
2010,08,23,04,17,9.50
2010,08,23,04,18,9.50
2010,08,23,04,19,9.50
2010,08,23,04,20,9.50
2010,08,23,04,21,9.50
2010,08,23,04,22,9.50
2010,08,23,04,23,9.50
2010,08,23,04,24,9.40
2010,08,23,04,25,9.40
2010,08,23,04,26,9.40
2010,08,23,04,27,9.40
2010,08,23,04,28,9.40
2010,08,23,04,29,9.40
2010,08,23,04,30,9.40
2010,08,23,04,31,9.40
2010,08,23,04,32,9.40
2010,08,23,04,33,9.40
2010,08,23,04,34,9.30
2010,08,23,04,35,9.30
2010,08,23,04,36,9.30
2010,08,23,04,37,9.30
2010,08,23,04,38,9.30
2010,08,23,04,39,9.30
2010,08,23,04,40,9.30
2010,08,23,04,41,9.30
2010,08,23,04,42,9.30
2010,08,23,04,43,9.30
2010,08,23,04,44,9.30
2010,08,23,04,45,9.30
2010,08,23,04,46,9.30
2010,08,23,04,47,9.30
2010,08,23,04,48,9.30
2010,08,23,04,49,9.30
2010,08,23,04,50,9.30
2010,08,23,04,51,9.30
2010,08,23,04,52,9.40
2010,08,23,04,53,9.40
2010,08,23,04,54,9.40
2010,08,23,04,55,9.40
2010,08,23,04,56,9.40
2010,08,23,04,57,9.30
2010,08,23,04,58,9.30
2010,08,23,04,59,9.30
2010,08,23,05,00,9.30
2010,08,23,05,01,9.30
2010,08,23,05,02,9.20
2010,08,23,05,03,9.20
2010,08,23,05,04,9.20
2010,08,23,05,05,9.20
2010,08,23,05,06,9.20
2010,08,23,05,07,9.20
2010,08,23,05,08,9.20
2010,08,23,05,09,9.20
2010,08,23,05,10,9.10
2010,08,23,05,11,9.10
2010,08,23,05,12,9.00
2010,08,23,05,13,9.00
2010,08,23,05,14,9.00
2010,08,23,05,15,8.90
2010,08,23,05,16,8.90
2010,08,23,05,17,8.90
2010,08,23,05,18,8.80
2010,08,23,05,19,8.80
2010,08,23,05,20,8.80
2010,08,23,05,21,8.80
2010,08,23,05,22,8.80
2010,08,23,05,23,8.80
2010,08,23,05,24,8.80
2010,08,23,05,25,8.80
2010,08,23,05,26,8.70
2010,08,23,05,27,8.70
2010,08,23,05,28,8.70
2010,08,23,05,29,8.70
2010,08,23,05,30,8.70
2010,08,23,05,31,8.70
2010,08,23,05,32,8.70
2010,08,23,05,33,8.70
2010,08,23,05,34,8.70
2010,08,23,05,35,8.70
2010,08,23,05,36,8.70
2010,08,23,05,37,8.70
2010,08,23,05,38,8.70
2010,08,23,05,39,8.60
2010,08,23,05,40,8.60
2010,08,23,05,41,8.60
2010,08,23,05,42,8.60
2010,08,23,05,43,8.60
2010,08,23,05,44,8.60
2010,08,23,05,45,8.60
2010,08,23,05,46,8.60
2010,08,23,05,47,8.60
2010,08,23,05,48,8.60
2010,08,23,05,49,8.60
2010,08,23,05,50,8.60
2010,08,23,05,51,8.60
2010,08,23,05,52,8.60
2010,08,23,05,53,8.60
2010,08,23,05,54,8.60
2010,08,23,05,55,8.60
2010,08,23,05,56,8.60
2010,08,23,05,57,8.60
2010,08,23,05,58,8.60
2010,08,23,05,59,8.60
2010,08,23,06,00,8.60
2010,08,23,06,01,8.60
2010,08,23,06,02,8.50
2010,08,23,06,03,8.50
2010,08,23,06,04,8.50
2010,08,23,06,05,8.50
2010,08,23,06,06,8.50
2010,08,23,06,07,8.50
2010,08,23,06,08,8.50
2010,08,23,06,09,8.40
2010,08,23,06,10,8.40
2010,08,23,06,11,8.40
2010,08,23,06,12,8.40
2010,08,23,06,13,8.40
2010,08,23,06,14,8.40
2010,08,23,06,15,8.40
2010,08,23,06,16,8.30
2010,08,23,06,17,8.30
2010,08,23,06,18,8.30
2010,08,23,06,19,8.30
2010,08,23,06,20,8.40
2010,08,23,06,21,8.40
2010,08,23,06,22,8.40
2010,08,23,06,23,8.40
2010,08,23,06,24,8.40
2010,08,23,06,25,8.40
2010,08,23,06,26,8.40
2010,08,23,06,27,8.50
2010,08,23,06,28,8.50
2010,08,23,06,29,8.50
2010,08,23,06,30,8.50
2010,08,23,06,31,8.50
2010,08,23,06,32,8.50
2010,08,23,06,33,8.50
2010,08,23,06,34,8.50
2010,08,23,06,35,8.50
2010,08,23,06,36,8.50
2010,08,23,06,37,8.50
2010,08,23,06,38,8.60
2010,08,23,06,39,8.60
2010,08,23,06,40,8.60
2010,08,23,06,41,8.60
2010,08,23,06,42,8.60
2010,08,23,06,43,8.60
2010,08,23,06,44,8.60
2010,08,23,06,45,8.60
2010,08,23,06,46,8.60
2010,08,23,06,47,8.60
2010,08,23,06,48,8.60
2010,08,23,06,49,8.70
2010,08,23,06,50,8.70
2010,08,23,06,51,8.70
2010,08,23,06,52,8.70
2010,08,23,06,53,8.70
2010,08,23,06,54,8.70
2010,08,23,06,55,8.70
2010,08,23,06,56,8.70
2010,08,23,06,57,8.80
2010,08,23,06,58,8.80
2010,08,23,06,59,8.80
2010,08,23,07,00,8.80
2010,08,23,07,01,8.90
2010,08,23,07,02,8.90
2010,08,23,07,03,9.00
2010,08,23,07,04,9.00
2010,08,23,07,05,9.10
2010,08,23,07,06,9.20
2010,08,23,07,07,9.30
2010,08,23,07,08,9.30
2010,08,23,07,09,9.40
2010,08,23,07,10,9.40
2010,08,23,07,11,9.50
2010,08,23,07,12,9.50
2010,08,23,07,13,9.60
2010,08,23,07,14,9.60
2010,08,23,07,15,9.60
2010,08,23,07,16,9.70
2010,08,23,07,17,9.70
2010,08,23,07,18,9.70
2010,08,23,07,19,9.70
2010,08,23,07,20,9.70
2010,08,23,07,21,9.80
2010,08,23,07,22,9.80
2010,08,23,07,23,9.90
2010,08,23,07,24,9.90
2010,08,23,07,25,9.90
2010,08,23,07,26,10.10
2010,08,23,07,27,10.10
2010,08,23,07,28,10.10
2010,08,23,07,29,10.20
2010,08,23,07,30,10.20
2010,08,23,07,31,10.30
2010,08,23,07,32,10.30
2010,08,23,07,33,10.40
2010,08,23,07,34,10.40
2010,08,23,07,35,10.60
2010,08,23,07,36,10.60
2010,08,23,07,37,10.60
2010,08,23,07,38,10.70
2010,08,23,07,39,10.80
2010,08,23,07,40,10.90
2010,08,23,07,41,11.00
2010,08,23,07,42,11.10
2010,08,23,07,43,11.20
2010,08,23,07,44,11.30
2010,08,23,07,45,11.30
2010,08,23,07,46,11.50
2010,08,23,07,47,11.70
2010,08,23,07,48,11.80
2010,08,23,07,49,12.00
2010,08,23,07,50,12.10
2010,08,23,07,51,12.30
2010,08,23,07,52,12.30
2010,08,23,07,53,12.30
2010,08,23,07,54,12.40
2010,08,23,07,55,12.50
2010,08,23,07,56,12.60
2010,08,23,07,57,12.70
2010,08,23,07,58,12.80
2010,08,23,07,59,12.80
2010,08,23,08,00,13.00
2010,08,23,08,01,13.00
2010,08,23,08,02,13.10
2010,08,23,08,03,13.20
2010,08,23,08,04,13.30
2010,08,23,08,05,13.40
2010,08,23,08,06,13.50
2010,08,23,08,07,13.60
2010,08,23,08,08,13.60
2010,08,23,08,09,13.70
2010,08,23,08,10,13.70
2010,08,23,08,11,13.80
2010,08,23,08,12,13.90
2010,08,23,08,13,13.90
2010,08,23,08,14,14.00
2010,08,23,08,15,14.00
2010,08,23,08,16,14.10
2010,08,23,08,17,14.10
2010,08,23,08,18,14.10
2010,08,23,08,19,14.20
2010,08,23,08,20,14.20
2010,08,23,08,21,14.20
2010,08,23,08,22,14.20
2010,08,23,08,23,14.20
2010,08,23,08,24,14.30
2010,08,23,08,25,14.30
2010,08,23,08,26,14.30
2010,08,23,08,27,14.40
2010,08,23,08,28,14.50
2010,08,23,08,29,14.50
2010,08,23,08,30,14.60
2010,08,23,08,31,14.60
2010,08,23,08,32,14.60
2010,08,23,08,33,14.60
2010,08,23,08,34,14.60
2010,08,23,08,35,14.70
2010,08,23,08,36,14.70
2010,08,23,08,37,14.80
2010,08,23,08,38,14.90
2010,08,23,08,39,14.90
2010,08,23,08,40,14.90
2010,08,23,08,41,14.90
2010,08,23,08,42,15.00
2010,08,23,08,43,15.00
2010,08,23,08,44,15.10
2010,08,23,08,45,15.20
2010,08,23,08,46,15.20
2010,08,23,08,47,15.20
2010,08,23,08,48,15.10
2010,08,23,08,49,15.10
2010,08,23,08,50,15.00
2010,08,23,08,51,15.00
2010,08,23,08,52,14.90
2010,08,23,08,53,14.90
2010,08,23,08,54,14.90
2010,08,23,08,55,14.90
2010,08,23,08,56,14.90
2010,08,23,08,57,15.00
2010,08,23,08,58,15.00
2010,08,23,08,59,15.10
2010,08,23,09,00,15.20
2010,08,23,09,01,15.20
2010,08,23,09,02,15.30
2010,08,23,09,03,15.30
2010,08,23,09,04,15.40
2010,08,23,09,05,15.40
2010,08,23,09,06,15.50
2010,08,23,09,07,15.50
2010,08,23,09,08,15.50
2010,08,23,09,09,15.60
2010,08,23,09,10,15.50
2010,08,23,09,11,15.60
2010,08,23,09,12,15.60
2010,08,23,09,13,15.60
2010,08,23,09,14,15.60
2010,08,23,09,15,15.60
2010,08,23,09,16,15.70
2010,08,23,09,17,15.80
2010,08,23,09,18,15.70
2010,08,23,09,19,15.70
2010,08,23,09,20,15.70
2010,08,23,09,21,15.80
2010,08,23,09,22,15.80
2010,08,23,09,23,15.80
2010,08,23,09,24,15.90
2010,08,23,09,25,16.00
2010,08,23,09,26,16.10
2010,08,23,09,27,16.10
2010,08,23,09,28,16.10
2010,08,23,09,29,16.00
2010,08,23,09,30,15.90
2010,08,23,09,31,15.80
2010,08,23,09,32,15.80
2010,08,23,09,33,15.80
2010,08,23,09,34,15.90
2010,08,23,09,35,16.10
2010,08,23,09,36,16.10
2010,08,23,09,37,16.10
2010,08,23,09,38,16.10
2010,08,23,09,39,16.10
2010,08,23,09,40,16.10
2010,08,23,09,41,16.10
2010,08,23,09,42,16.00
2010,08,23,09,43,15.90
2010,08,23,09,44,15.80
2010,08,23,09,45,15.80
2010,08,23,09,46,15.80
2010,08,23,09,47,15.70
2010,08,23,09,48,15.60
2010,08,23,09,49,15.60
2010,08,23,09,50,15.50
2010,08,23,09,51,15.50
2010,08,23,09,52,15.40
2010,08,23,09,53,15.40
2010,08,23,09,54,15.30
2010,08,23,09,55,15.30
2010,08,23,09,56,15.30
2010,08,23,09,57,15.40
2010,08,23,09,58,15.40
2010,08,23,09,59,15.40
2010,08,23,10,00,15.40
2010,08,23,10,01,15.40
2010,08,23,10,02,15.40
2010,08,23,10,03,15.40
2010,08,23,10,04,15.50
2010,08,23,10,05,15.50
2010,08,23,10,06,15.60
2010,08,23,10,07,15.70
2010,08,23,10,08,15.70
2010,08,23,10,09,15.80
2010,08,23,10,10,15.80
2010,08,23,10,11,15.90
2010,08,23,10,12,15.90
2010,08,23,10,13,15.90
2010,08,23,10,14,15.80
2010,08,23,10,15,15.80
2010,08,23,10,16,15.80
2010,08,23,10,17,15.70
2010,08,23,10,18,15.70
2010,08,23,10,19,15.80
2010,08,23,10,20,15.70
2010,08,23,10,21,15.60
2010,08,23,10,22,15.70
2010,08,23,10,23,15.80
2010,08,23,10,24,15.90
2010,08,23,10,25,15.90
2010,08,23,10,26,15.90
2010,08,23,10,27,15.80
2010,08,23,10,28,15.80
2010,08,23,10,29,15.80
2010,08,23,10,30,15.80
2010,08,23,10,31,15.90
2010,08,23,10,32,15.90
2010,08,23,10,33,16.10
2010,08,23,10,34,16.10
2010,08,23,10,35,15.90
2010,08,23,10,36,15.80
2010,08,23,10,37,15.80
2010,08,23,10,38,15.80
2010,08,23,10,39,15.80
2010,08,23,10,40,15.70
2010,08,23,10,41,15.60
2010,08,23,10,42,15.60
2010,08,23,10,43,15.70
2010,08,23,10,44,15.80
2010,08,23,10,45,15.80
2010,08,23,10,46,15.80
2010,08,23,10,47,15.80
2010,08,23,10,48,15.90
2010,08,23,10,49,15.90
2010,08,23,10,50,16.00
2010,08,23,10,51,16.10
2010,08,23,10,52,16.10
2010,08,23,10,53,16.10
2010,08,23,10,54,16.20
2010,08,23,10,55,16.40
2010,08,23,10,56,16.50
2010,08,23,10,57,16.60
2010,08,23,10,58,16.60
2010,08,23,10,59,16.40
2010,08,23,11,00,16.20
2010,08,23,11,01,16.20
2010,08,23,11,02,16.10
2010,08,23,11,03,16.00
2010,08,23,11,04,15.80
2010,08,23,11,05,15.70
2010,08,23,11,06,15.70
2010,08,23,11,07,15.90
2010,08,23,11,08,16.00
2010,08,23,11,09,16.10
2010,08,23,11,10,16.20
2010,08,23,11,11,16.30
2010,08,23,11,12,16.40
2010,08,23,11,13,16.40
2010,08,23,11,14,16.50
2010,08,23,11,15,16.60
2010,08,23,11,16,16.70
2010,08,23,11,17,16.70
2010,08,23,11,18,16.70
2010,08,23,11,19,16.90
2010,08,23,11,20,17.00
2010,08,23,11,21,17.10
2010,08,23,11,22,17.10
2010,08,23,11,23,17.10
2010,08,23,11,24,17.00
2010,08,23,11,25,17.00
2010,08,23,11,26,16.90
2010,08,23,11,27,16.90
2010,08,23,11,28,16.90
2010,08,23,11,29,16.90
2010,08,23,11,30,16.90
2010,08,23,11,31,16.80
2010,08,23,11,32,16.80
2010,08,23,11,33,16.80
2010,08,23,11,34,16.80
2010,08,23,11,35,16.90
2010,08,23,11,36,16.90
2010,08,23,11,37,16.80
2010,08,23,11,38,16.80
2010,08,23,11,39,16.80
2010,08,23,11,40,16.90
2010,08,23,11,41,17.00
2010,08,23,11,42,17.10
2010,08,23,11,43,17.30
2010,08,23,11,44,17.30
2010,08,23,11,45,17.20
2010,08,23,11,46,17.10
2010,08,23,11,47,17.10
2010,08,23,11,48,17.10
2010,08,23,11,49,17.20
2010,08,23,11,50,17.30
2010,08,23,11,51,17.30
2010,08,23,11,52,17.30
2010,08,23,11,53,17.20
2010,08,23,11,54,17.10
2010,08,23,11,55,17.00
2010,08,23,11,56,16.90
2010,08,23,11,57,16.80
2010,08,23,11,58,16.90
2010,08,23,11,59,17.00
2010,08,23,12,00,16.90
2010,08,23,12,01,16.90
2010,08,23,12,02,16.90
2010,08,23,12,03,16.80
2010,08,23,12,04,16.70
2010,08,23,12,05,16.60
2010,08,23,12,06,16.40
2010,08,23,12,07,16.40
2010,08,23,12,08,16.50
2010,08,23,12,09,16.60
2010,08,23,12,10,16.70
2010,08,23,12,11,16.70
2010,08,23,12,12,16.70
2010,08,23,12,13,16.70
2010,08,23,12,14,16.60
2010,08,23,12,15,16.50
2010,08,23,12,16,16.40
2010,08,23,12,17,16.50
2010,08,23,12,18,16.70
2010,08,23,12,19,16.90
2010,08,23,12,20,17.00
2010,08,23,12,21,17.00
2010,08,23,12,22,17.00
2010,08,23,12,23,17.00
2010,08,23,12,24,17.00
2010,08,23,12,25,17.00
2010,08,23,12,26,17.00
2010,08,23,12,27,17.00
2010,08,23,12,28,16.90
2010,08,23,12,29,16.90
2010,08,23,12,30,16.90
2010,08,23,12,31,16.90
2010,08,23,12,32,16.80
2010,08,23,12,33,16.70
2010,08,23,12,34,16.60
2010,08,23,12,35,16.50
2010,08,23,12,36,16.40
2010,08,23,12,37,16.40
2010,08,23,12,38,16.30
2010,08,23,12,39,16.30
2010,08,23,12,40,16.20
2010,08,23,12,41,16.30
2010,08,23,12,42,16.30
2010,08,23,12,43,16.40
2010,08,23,12,44,16.40
2010,08,23,12,45,16.30
2010,08,23,12,46,16.40
2010,08,23,12,47,16.30
2010,08,23,12,48,16.20
2010,08,23,12,49,16.10
2010,08,23,12,50,16.00
2010,08,23,12,51,16.00
2010,08,23,12,52,16.10
2010,08,23,12,53,16.10
2010,08,23,12,54,16.30
2010,08,23,12,55,16.40
2010,08,23,12,56,16.60
2010,08,23,12,57,16.80
2010,08,23,12,58,16.90
2010,08,23,12,59,16.90
2010,08,23,13,00,17.10
2010,08,23,13,01,17.20
2010,08,23,13,02,17.10
2010,08,23,13,03,17.10
2010,08,23,13,04,17.20
2010,08,23,13,05,17.30
2010,08,23,13,06,17.30
2010,08,23,13,07,17.50
2010,08,23,13,08,17.60
2010,08,23,13,09,17.70
2010,08,23,13,10,17.80
2010,08,23,13,11,17.80
2010,08,23,13,12,17.80
2010,08,23,13,13,17.70
2010,08,23,13,14,17.70
2010,08,23,13,15,17.80
2010,08,23,13,16,17.70
2010,08,23,13,17,17.70
2010,08,23,13,18,17.70
2010,08,23,13,19,17.70
2010,08,23,13,20,17.80
2010,08,23,13,21,17.80
2010,08,23,13,22,17.90
2010,08,23,13,23,17.90
2010,08,23,13,24,17.80
2010,08,23,13,25,17.90
2010,08,23,13,26,18.00
2010,08,23,13,27,18.10
2010,08,23,13,28,18.20
2010,08,23,13,29,18.20
2010,08,23,13,30,18.20
2010,08,23,13,31,18.20
2010,08,23,13,32,18.10
2010,08,23,13,33,17.90
2010,08,23,13,34,17.80
2010,08,23,13,35,17.70
2010,08,23,13,36,17.90
2010,08,23,13,37,17.90
2010,08,23,13,38,17.90
2010,08,23,13,39,17.90
2010,08,23,13,40,18.10
2010,08,23,13,41,18.20
2010,08,23,13,42,18.20
2010,08,23,13,43,18.30
2010,08,23,13,44,18.30
2010,08,23,13,45,18.30
2010,08,23,13,46,18.40
2010,08,23,13,47,18.40
2010,08,23,13,48,18.30
2010,08,23,13,49,18.40
2010,08,23,13,50,18.40
2010,08,23,13,51,18.40
2010,08,23,13,52,18.50
2010,08,23,13,53,18.60
2010,08,23,13,54,18.40
2010,08,23,13,55,18.20
2010,08,23,13,56,18.00
2010,08,23,13,57,17.70
2010,08,23,13,58,17.40
2010,08,23,13,59,17.30
2010,08,23,14,00,17.30
2010,08,23,14,01,17.30
2010,08,23,14,02,17.30
2010,08,23,14,03,17.30
2010,08,23,14,04,17.30
2010,08,23,14,05,17.50
2010,08,23,14,06,17.50
2010,08,23,14,07,17.60
2010,08,23,14,08,17.80
2010,08,23,14,09,17.80
2010,08,23,14,10,17.70
2010,08,23,14,11,17.80
2010,08,23,14,12,17.90
2010,08,23,14,13,17.90
2010,08,23,14,14,17.80
2010,08,23,14,15,17.80
2010,08,23,14,16,17.70
2010,08,23,14,17,17.70
2010,08,23,14,18,17.60
2010,08,23,14,19,17.60
2010,08,23,14,20,17.50
2010,08,23,14,21,17.40
2010,08,23,14,22,17.50
2010,08,23,14,23,17.60
2010,08,23,14,24,17.50
2010,08,23,14,25,17.50
2010,08,23,14,26,17.50
2010,08,23,14,27,17.50
2010,08,23,14,28,17.50
2010,08,23,14,29,17.30
2010,08,23,14,30,17.30
2010,08,23,14,31,17.30
2010,08,23,14,32,17.50
2010,08,23,14,33,17.70
2010,08,23,14,34,17.70
2010,08,23,14,35,17.80
2010,08,23,14,36,17.80
2010,08,23,14,37,17.80
2010,08,23,14,38,17.90
2010,08,23,14,39,18.00
2010,08,23,14,40,18.10
2010,08,23,14,41,18.30
2010,08,23,14,42,18.40
2010,08,23,14,43,18.50
2010,08,23,14,44,18.60
2010,08,23,14,45,18.70
2010,08,23,14,46,18.70
2010,08,23,14,47,18.70
2010,08,23,14,48,18.60
2010,08,23,14,49,18.50
2010,08,23,14,50,18.50
2010,08,23,14,51,18.50
2010,08,23,14,52,18.50
2010,08,23,14,53,18.40
2010,08,23,14,54,18.30
2010,08,23,14,55,18.10
2010,08,23,14,56,18.10
2010,08,23,14,57,18.00
2010,08,23,14,58,17.90
2010,08,23,14,59,17.90
2010,08,23,15,00,18.00
2010,08,23,15,01,18.10
2010,08,23,15,02,18.20
2010,08,23,15,03,18.30
2010,08,23,15,04,18.40
2010,08,23,15,05,18.50
2010,08,23,15,06,18.40
2010,08,23,15,07,18.40
2010,08,23,15,08,18.30
2010,08,23,15,09,18.10
2010,08,23,15,10,18.10
2010,08,23,15,11,18.10
2010,08,23,15,12,18.10
2010,08,23,15,13,18.10
2010,08,23,15,14,18.20
2010,08,23,15,15,18.40
2010,08,23,15,16,18.60
2010,08,23,15,17,18.70
2010,08,23,15,18,18.70
2010,08,23,15,19,18.70
2010,08,23,15,20,18.70
2010,08,23,15,21,18.90
2010,08,23,15,22,19.00
2010,08,23,15,23,19.10
2010,08,23,15,24,19.10
2010,08,23,15,25,19.10
2010,08,23,15,26,19.20
2010,08,23,15,27,19.20
2010,08,23,15,28,19.10
2010,08,23,15,29,18.90
2010,08,23,15,30,18.80
2010,08,23,15,31,18.90
2010,08,23,15,32,19.10
2010,08,23,15,33,19.20
2010,08,23,15,34,19.30
2010,08,23,15,35,19.20
2010,08,23,15,36,19.20
2010,08,23,15,37,19.20
2010,08,23,15,38,19.20
2010,08,23,15,39,19.10
2010,08,23,15,40,19.10
2010,08,23,15,41,19.20
2010,08,23,15,42,19.20
2010,08,23,15,43,19.30
2010,08,23,15,44,19.30
2010,08,23,15,45,19.30
2010,08,23,15,46,19.20
2010,08,23,15,47,19.10
2010,08,23,15,48,19.10
2010,08,23,15,49,19.10
2010,08,23,15,50,19.30
2010,08,23,15,51,19.30
2010,08,23,15,52,19.20
2010,08,23,15,53,19.20
2010,08,23,15,54,19.10
2010,08,23,15,55,19.00
2010,08,23,15,56,18.90
2010,08,23,15,57,18.90
2010,08,23,15,58,18.90
2010,08,23,15,59,18.90
2010,08,23,16,00,18.80
2010,08,23,16,01,18.80
2010,08,23,16,02,18.70
2010,08,23,16,03,18.70
2010,08,23,16,04,18.70
2010,08,23,16,05,18.80
2010,08,23,16,06,18.70
2010,08,23,16,07,18.60
2010,08,23,16,08,18.60
2010,08,23,16,09,18.60
2010,08,23,16,10,18.70
2010,08,23,16,11,18.70
2010,08,23,16,12,18.70
2010,08,23,16,13,18.80
2010,08,23,16,14,18.80
2010,08,23,16,15,18.80
2010,08,23,16,16,18.80
2010,08,23,16,17,18.80
2010,08,23,16,18,18.80
2010,08,23,16,19,18.70
2010,08,23,16,20,18.70
2010,08,23,16,21,18.80
2010,08,23,16,22,18.90
2010,08,23,16,23,19.00
2010,08,23,16,24,19.10
2010,08,23,16,25,19.10
2010,08,23,16,26,19.10
2010,08,23,16,27,19.10
2010,08,23,16,28,19.00
2010,08,23,16,29,18.90
2010,08,23,16,30,18.90
2010,08,23,16,31,18.90
2010,08,23,16,32,19.10
2010,08,23,16,33,19.10
2010,08,23,16,34,19.10
2010,08,23,16,35,19.20
2010,08,23,16,36,19.30
2010,08,23,16,37,19.40
2010,08,23,16,38,19.40
2010,08,23,16,39,19.40
2010,08,23,16,40,19.40
2010,08,23,16,41,19.50
2010,08,23,16,42,19.60
2010,08,23,16,43,19.60
2010,08,23,16,44,19.50
2010,08,23,16,45,19.40
2010,08,23,16,46,19.40
2010,08,23,16,47,19.40
2010,08,23,16,48,19.40
2010,08,23,16,49,19.40
2010,08,23,16,50,19.40
2010,08,23,16,51,19.50
2010,08,23,16,52,19.50
2010,08,23,16,53,19.50
2010,08,23,16,54,19.40
2010,08,23,16,55,19.40
2010,08,23,16,56,19.30
2010,08,23,16,57,19.30
2010,08,23,16,58,19.20
2010,08,23,16,59,19.20
2010,08,23,17,00,19.10
2010,08,23,17,01,19.00
2010,08,23,17,02,18.90
2010,08,23,17,03,18.90
2010,08,23,17,04,18.90
2010,08,23,17,05,18.90
2010,08,23,17,06,18.90
2010,08,23,17,07,18.90
2010,08,23,17,08,18.90
2010,08,23,17,09,18.90
2010,08,23,17,10,18.90
2010,08,23,17,11,18.90
2010,08,23,17,12,18.90
2010,08,23,17,13,18.90
2010,08,23,17,14,18.90
2010,08,23,17,15,18.90
2010,08,23,17,16,18.80
2010,08,23,17,17,18.80
2010,08,23,17,18,18.80
2010,08,23,17,19,18.80
2010,08,23,17,20,18.80
2010,08,23,17,21,18.80
2010,08,23,17,22,18.80
2010,08,23,17,23,18.80
2010,08,23,17,24,18.70
2010,08,23,17,25,18.70
2010,08,23,17,26,18.70
2010,08,23,17,27,18.70
2010,08,23,17,28,18.80
2010,08,23,17,29,18.80